Regional Weather Roundup
Issued by NWS

Current Version | Previous Version | Text Only | Print | Product List | Glossary On
Versions: 1 2 3 4 5 6 7 8 9 10 11 12 13 14 15 16 17 18 19 20 21 22 23 24 25 26 27 28 29 30 31 32 33 34 35 36 37 38 39 40 41 42 43 44 45 46 47 48 49 50
000
ASUS44 KFWD 190915
RWRTX
NORTH TEXAS HOURLY WEATHER ROUNDUP
NATIONAL WEATHER SERVICE FORT WORTH TX
300 AM CST SUN JAN 19 2020

NOTE: "FAIR" INDICATES FEW OR NO CLOUDS BELOW 12,000 FEET WITH NO
SIGNIFICANT WEATHER AND/OR OBSTRUCTIONS TO VISIBILITY.

TXZ118-119-191000-
DALLAS/FORT WORTH METROPLEX

CITY           SKY/WX    TMP DP  RH WIND       PRES   REMARKS
DFW AIRPORT    FAIR      36  25  64 N9        30.48R WCI  29
DALLAS LOVE    FAIR      40  21  46 N5        30.50R WCI  37
FTW MEACHAM    FAIR      33  26  75 N9        30.49R WCI  25
DAL-EXECUTIVE  FAIR      42  17  36 NE10      30.48R WCI  36
FTW-ALLIANCE   FAIR      35  24  64 N7        30.50R WCI  29
FTW-NAS-JRB    FAIR      41  27  57 N7        30.51R WCI  36
FTW-SPINKS     FAIR      33  28  80 N5        30.51R WCI  29
ARLINGTON      FAIR      42  20  41 N8        30.49R WCI  37
GRAND PRAIRIE  FAIR      39  20  46 N7        30.51R WCI  34
ADDISON        FAIR      38  22  53 N3        30.51S
MESQUITE       FAIR      40  20  46 N8        30.50R WCI  34
LANCASTER      FAIR      40  21  46 N5        30.50S WCI  36
$$

TXZ091>094-102>105-117-120-121-131>134-191000-
NORTH CENTRAL TEXAS

CITY           SKY/WX    TMP DP  RH WIND       PRES   REMARKS
SHRMAN/DENISON FAIR      32  27  80 N5        30.52R WCI  28
GAINESVILLE    FAIR      30  24  77 N6        30.53R WCI  24
BOWIE          FAIR      34  26  71 N3        30.51R
BRIDGEPORT     FAIR      33  24  71 CALM      30.52S
DECATUR        FAIR      35  22  58 N7        30.50R WCI  30
DENTON         FAIR      33  25  72 N6        30.51R WCI  28
MCKINNEY       FAIR      35  25  66 N6        30.50R WCI  30
BONHAM         FAIR      33  24  70 NW5       30.51R WCI  29
GREENVILLE     FAIR      37  27  65 N7        30.49S WCI  32
ROCKWALL       FAIR      35  24  64 N5        30.50R WCI  31
TERRELL        FAIR      38  22  52 N6        30.49R WCI  33
WAXAHACHIE     FAIR      39  21  48 NE8       30.49S WCI  33
CLEBURNE       CLEAR     37  23  56 N9        30.50R WCI  31
GRANBURY       FAIR      32  26  80 NW5       30.51S WCI  27
$$

TXZ083>090-098>101-113>116-127>130-139>142-154-155-191000-
WESTERN NORTH TEXAS

CITY           SKY/WX    TMP DP  RH WIND       PRES   REMARKS
WICHITA FALLS  FAIR      31  24  75 N3        30.52R
WF-KICKAPOO    FAIR      31  24  74 N5        30.55R WCI  26
VERNON         FAIR      33  25  72 CALM      30.52S
ABILENE        FAIR      30  24  78 W5        30.49R WCI  25
ABILENE-DYESS  FAIR      29  20  68 SW3       30.49R
GRAHAM         FAIR      28  25  86 CALM      30.50R
BRECKENRIDGE   FAIR      32  25  77 CALM      30.51R
CISCO          FAIR      32  25  74 N8        30.48R WCI  25
EASTLAND       FAIR      29  22  74 N5        30.49S WCI  24
RANGER         FAIR      32  24  73 CALM      30.49R
MINERAL WELLS  FAIR      34  24  67 N5        30.49R WCI  30
STEPHENVILLE   FAIR      35  24  64 N5        30.51R WCI  31
COMANCHE       FAIR      32  27  80 NW5       30.50R WCI  27
BROWNWOOD      FAIR      28  27  93 CALM      30.50R
COLEMAN        FAIR      33  23  66 CALM      30.49S
BRADY          FAIR      30  25  80 N9        30.46S WCI  22
$$

TXZ143>147-156>162-174-175-191000-
CENTRAL TEXAS

CITY           SKY/WX    TMP DP  RH WIND       PRES   REMARKS
WACO           FAIR      36  26  67 N8        30.47R WCI  30
WACO-MCGREGOR  FAIR      37  27  67 N8        30.48R WCI  31
HILLSBORO      FAIR      39  21  49 N8        30.47R WCI  33
CORSICANA      FAIR      38  24  57 N10       30.47S WCI  31
MEXIA          FAIR      39  24  55 N8        30.44S WCI  34
HEARNE         FAIR      40  29  66 N7        30.44R WCI  35
CAMERON        FAIR      40  28  61 N10       30.44R WCI  33
TEMPLE         FAIR      37  27  67 N9        30.46R WCI  30
KILLEEN        FAIR      37  24  57 NE15      30.44R WCI  28
KILLEEN-SKYLRK FAIR      39  24  55 N9        30.46R WCI  33
FORT HOOD      FAIR      40  23  52 N9        30.45R WCI  34
GATESVILLE     FAIR      41  21  45 N6        30.49R WCI  37
HAMILTON       FAIR      33  28  80 N7        30.48R WCI  27
$$

TXZ095>097-106>112-122>126-135>138-148>153-164>167-191000-
EAST TEXAS

CITY           SKY/WX    TMP DP  RH WIND       PRES   REMARKS
PARIS          FAIR      34  23  64 N7        30.49R WCI  28
SULPHUR SPRNGS FAIR      39  25  57 N10       30.51R WCI  32
MOUNT PLEASANT FAIR      37  23  56 NW3       30.50R
GILMER         CLOUDY    37  23  55 N7        30.47R WCI  32
MINEOLA        FAIR      37  21  52 N6        30.48R WCI  33
TYLER          FAIR      39  21  48 N8        30.44S WCI  33
LONGVIEW       FAIR      39  32  76 N8        30.44R WCI  33
MARSHALL       FAIR      36  25  64 N7        30.47R WCI  30
ATHENS         FAIR      37  27  65 N9        30.45R WCI  31
PALESTINE      FAIR      40  26  56 N10       30.44S WCI  34
JACKSONVILLE   FAIR      39  25  57 N8        30.43R WCI  34
HENDERSON      FAIR      38  25  58 N6        30.45R WCI  34
CENTER         FAIR      40  27  60 MISG      30.43R
NACOGDOCHES    FAIR      43  23  45 N8        30.41R WCI  38
LUFKIN         FAIR      45  26  47 N13       30.39R WCI  39
$$

SUPPLEMENTAL OBSERVATIONS (NWS FORT WORTH AREA)

CITY           SKY/WX    TMP DP  RH WIND       PRES   REMARKS
CADDO GRASSLND   N/A     32  27  80 N1          N/A
LBJ GRASSLAND    N/A     34  23  64 N5          N/A  WCI  30
POSSUM KINGDOM   N/A     32  23  69 NE1         N/A
GRANBURY         N/A     32  27  80 W5          N/A  WCI  27
MCGREGOR         N/A     37  25  60 N7          N/A  WCI  32
TEMPLE           N/A     43  27  52 N16         N/A  WCI  35
PALESTINE        N/A     41  23  48 N10         N/A  WCI  35
$$

SUPPLEMENTAL OBSERVATIONS (NWS NORMAN AREA)

CITY           SKY/WX    TMP DP  RH WIND       PRES   REMARKS
GOODLETT         N/A     33  21  63 S2        30.50
ODELL            N/A     28  25  89 W1        30.52
CROWELL          N/A     31  23  72 CALM      30.52
KNOX CITY        N/A     28  27  95 CALM      30.52
SEYMOUR          N/A     28  25  87 N3        30.51
MILLERS CREEK    N/A     32  27  80 N1          N/A
$$

SUPPLEMENTAL OBSERVATIONS (NWS SAN ANGELO AREA)

CITY           SKY/WX    TMP DP  RH WIND       PRES   REMARKS
WEINERT          N/A     32  22  65 NE2       30.51
HASKELL          N/A     33  25  73 NE7       30.49  WCI  27
THROCKMORTON     N/A     32  28  86 NW1       30.51
STAMFORD         N/A     31  27  84 NE1       30.51
CLYDE            N/A     31  20  63 NE1       30.49
HAMBY            N/A     32  25  74 CALM        N/A
IVIE RESERVOIR   N/A     36  27  69 N5          N/A  WCI  32
COLORADO BEND    N/A     37  27  65 N6          N/A  WCI  33
$$

SUPPLEMENTAL OBSERVATIONS (NWS SHREVEPORT AREA)

CITY           SKY/WX    TMP DP  RH WIND       PRES   REMARKS
TEXARKANA        N/A     37  21  52 N3          N/A
LINDEN           N/A     37  23  56 N3          N/A
CADDO LAKE       N/A     34  28  80 NW1         N/A
LUFKIN           N/A     43  27  52 MISG        N/A
N SABINE NF      N/A     39  30  70 MISG        N/A
$$

SUPPLEMENTAL OBSERVATIONS ARE A COLLECTION OF AUTOMATED INSTRUMENTS
THAT ARE MAINTAINED BY A VARIETY OF FEDERAL AND STATE AGENCIES.
CERTAIN ELEMENTS...SUCH AS HUMIDITY VALUES AND SUSTAINED WIND
SPEEDS...MAY BE APPROXIMATED.




USA.gov is the U.S. government's official web portal to all federal, state and local government web resources and services.